| time (UTC) | temp F | wind direction | speed MPH | gust MPH | rain 1hr in | rain 24hr in | rain mn in | humidity % | barometer mb |
| 20260508153615 | 71 | 25 | 3.0 | 6.0 | 0.00 | 0.00 | 0.00 | 88 | 1010.4 |
| 20260508153112 | 71 | 67 | 3.0 | 6.0 | 0.00 | 0.00 | 0.00 | 88 | 1010.4 |
| 20260508152610 | 70 | 85 | 3.0 | 6.0 | 0.00 | 0.00 | 0.00 | 88 | 1010.6 |
| 20260508152107 | 70 | 57 | 3.0 | 6.0 | 0.00 | 0.00 | 0.00 | 88 | 1010.6 |
| 20260508151608 | 70 | 43 | 4.0 | 6.0 | 0.00 | 0.00 | 0.00 | 88 | 1010.6 |
| 20260508151107 | 70 | 29 | 3.0 | 6.0 | 0.00 | 0.00 | 0.00 | 88 | 1010.6 |
| 20260508150834 | 69 | 85 | 3.0 | 7.0 | 0.00 | 0.00 | 0.00 | 88 | 1010.6 |
| 20260508150325 | 69 | 78 | 4.0 | 7.0 | 0.00 | 0.00 | 0.00 | 88 | 1010.6 |
| 20260508145603 | 69 | 50 | 4.0 | 7.0 | 0.00 | 0.00 | 0.00 | 87 | 1010.4 |
| 20260508145100 | 69 | 49 | 5.0 | 7.0 | 0.00 | 0.00 | 0.00 | 87 | 1010.4 |
| 20260508144045 | 69 | 41 | 3.0 | 7.0 | 0.00 | 0.00 | 0.00 | 87 | 1011.0 |
| 20260508143535 | 69 | 49 | 2.0 | 5.0 | 0.00 | 0.00 | 0.00 | 87 | 1011.0 |
| 20260508143020 | 69 | 45 | 2.0 | 10.0 | 0.00 | 0.00 | 0.00 | 87 | 1011.0 |
| 20260508142735 | 68 | 58 | 3.0 | 10.0 | 0.00 | 0.00 | 0.00 | 87 | 1010.3 |
| 20260508142008 | 68 | 37 | 5.0 | 10.0 | 0.00 | 0.00 | 0.00 | 87 | 1010.3 |
| 20260508141454 | 68 | 27 | 6.0 | 10.0 | 0.00 | 0.00 | 0.00 | 87 | 1010.3 |
| 20260508141210 | 68 | 53 | 5.0 | 9.0 | 0.00 | 0.00 | 0.00 | 87 | 1010.3 |
| 20260508140430 | 68 | 45 | 5.0 | 9.0 | 0.00 | 0.00 | 0.00 | 87 | 1010.3 |
| 20260508140148 | 68 | 51 | 4.0 | 7.0 | 0.00 | 0.00 | 0.00 | 87 | 1010.8 |
| 20260508135418 | 68 | 53 | 3.0 | 7.0 | 0.00 | 0.00 | 0.00 | 87 | 1010.8 |
| 20260508134904 | 67 | 26 | 4.0 | 7.0 | 0.00 | 0.00 | 0.00 | 86 | 1010.8 |
| 20260508134355 | 67 | 39 | 3.0 | 7.0 | 0.00 | 0.00 | 0.00 | 86 | 1011.2 |
| 20260508133849 | 67 | 48 | 3.0 | 7.0 | 0.00 | 0.00 | 0.00 | 86 | 1011.2 |
| 20260508133340 | 67 | 50 | 3.0 | 7.0 | 0.00 | 0.00 | 0.00 | 86 | 1011.2 |
| 20260508132837 | 67 | 74 | 3.0 | 7.0 | 0.00 | 0.00 | 0.00 | 86 | 1011.3 |
| 20260508132603 | 67 | 90 | 3.0 | 7.0 | 0.00 | 0.00 | 0.00 | 86 | 1011.3 |
| 20260508131836 | 67 | 70 | 2.0 | 7.0 | 0.00 | 0.00 | 0.00 | 86 | 1011.3 |
| 20260508131338 | 67 | 62 | 2.0 | 6.0 | 0.00 | 0.00 | 0.00 | 86 | 1011.4 |
| 20260508130835 | 66 | 47 | 2.0 | 6.0 | 0.00 | 0.00 | 0.00 | 86 | 1011.4 |
| 20260508130335 | 66 | 59 | 3.0 | 7.0 | 0.00 | 0.00 | 0.00 | 86 | 1011.4 |
| 20260508130054 | 66 | 54 | 4.0 | 7.0 | 0.00 | 0.00 | 0.00 | 86 | 1011.2 |
| 20260508125335 | 66 | 47 | 5.0 | 12.0 | 0.00 | 0.00 | 0.00 | 86 | 1011.2 |
| 20260508124833 | 66 | 55 | 7.0 | 12.0 | 0.00 | 0.00 | 0.00 | 86 | 1011.2 |
| 20260508124332 | 66 | 52 | 7.0 | 12.0 | 0.00 | 0.00 | 0.00 | 86 | 1011.4 |
| 20260508123828 | 66 | 9 | 7.0 | 13.0 | 0.00 | 0.00 | 0.00 | 86 | 1011.4 |
| 20260508123329 | 66 | 355 | 7.0 | 16.0 | 0.00 | 0.00 | 0.00 | 86 | 1011.4 |
| 20260508122830 | 66 | 18 | 7.0 | 16.0 | 0.00 | 0.00 | 0.00 | 86 | 1011.3 |
| 20260508122329 | 66 | 345 | 9.0 | 16.0 | 0.00 | 0.00 | 0.00 | 85 | 1011.3 |
| 20260508121830 | 66 | 348 | 10.0 | 16.0 | 0.00 | 0.00 | 0.00 | 85 | 1011.3 |
| 20260508120829 | 67 | 358 | 9.0 | 16.0 | 0.00 | 0.00 | 0.00 | 85 | 1011.2 |
| 20260508120329 | 67 | 16 | 10.0 | 16.0 | 0.00 | 0.00 | 0.00 | 85 | 1011.2 |
| 20260508115828 | 67 | 346 | 11.0 | 16.0 | 0.00 | 0.00 | 0.00 | 85 | 1011.4 |
| 20260508115318 | 67 | 338 | 12.0 | 19.0 | 0.00 | 0.00 | 0.00 | 85 | 1011.4 |
| 20260508114812 | 68 | 340 | 12.0 | 19.0 | 0.00 | 0.00 | 0.00 | 85 | 1011.4 |
| 20260508114302 | 68 | 336 | 11.0 | 19.0 | 0.00 | 0.00 | 0.00 | 85 | 1011.4 |
| 20260508113748 | 68 | 344 | 12.0 | 18.0 | 0.00 | 0.00 | 0.00 | 85 | 1011.4 |
| 20260508113241 | 68 | 347 | 12.0 | 18.0 | 0.00 | 0.00 | 0.00 | 85 | 1011.4 |
| 20260508112736 | 68 | 315 | 10.0 | 17.0 | 0.00 | 0.00 | 0.00 | 85 | 1011.1 |
| 20260508112222 | 69 | 319 | 10.0 | 14.0 | 0.00 | 0.00 | 0.00 | 85 | 1011.1 |
| 20260508111716 | 68 | 320 | 10.0 | 14.0 | 0.00 | 0.00 | 0.00 | 85 | 1011.1 |
| 20260508111206 | 68 | 338 | 7.0 | 12.0 | 0.00 | 0.00 | 0.00 | 85 | 1010.6 |
| 20260508110926 | 68 | 344 | 5.0 | 9.0 | 0.00 | 0.00 | 0.00 | 85 | 1010.6 |
| 20260508110156 | 68 | 358 | 4.0 | 7.0 | 0.00 | 0.00 | 0.00 | 84 | 1010.6 |
| 20260508105658 | 68 | 342 | 3.0 | 7.0 | 0.00 | 0.00 | 0.00 | 84 | 1010.2 |
| 20260508105155 | 68 | 43 | 4.0 | 7.0 | 0.00 | 0.00 | 0.00 | 84 | 1010.2 |
| 20260508104652 | 68 | 31 | 5.0 | 7.0 | 0.00 | 0.00 | 0.00 | 84 | 1010.2 |
| 20260508104154 | 68 | 50 | 4.0 | 9.0 | 0.00 | 0.00 | 0.00 | 84 | 1010.2 |
| 20260508103653 | 68 | 22 | 4.0 | 9.0 | 0.00 | 0.00 | 0.00 | 84 | 1010.2 |
| 20260508103154 | 68 | 49 | 4.0 | 9.0 | 0.00 | 0.00 | 0.00 | 84 | 1010.2 |
| 20260508102412 | 68 | 46 | 4.0 | 8.0 | 0.00 | 0.00 | 0.00 | 84 | 1010.6 |
| 20260508101650 | 69 | 37 | 4.0 | 8.0 | 0.00 | 0.00 | 0.00 | 84 | 1010.6 |
| 20260508101420 | 69 | 40 | 5.0 | 11.0 | 0.00 | 0.00 | 0.00 | 84 | 1010.9 |
| 20260508100646 | 69 | 25 | 5.0 | 11.0 | 0.00 | 0.00 | 0.00 | 84 | 1010.9 |
| 20260508100355 | 69 | 353 | 7.0 | 11.0 | 0.00 | 0.00 | 0.00 | 84 | 1010.9 |
| 20260508095630 | 69 | 349 | 8.0 | 11.0 | 0.00 | 0.00 | 0.00 | 84 | 1011.5 |
| 20260508095124 | 69 | 333 | 7.0 | 13.0 | 0.00 | 0.00 | 0.00 | 84 | 1011.5 |
| 20260508094617 | 69 | 334 | 7.0 | 13.0 | 0.00 | 0.00 | 0.00 | 84 | 1011.5 |
| 20260508094105 | 69 | 315 | 7.0 | 11.0 | 0.00 | 0.00 | 0.00 | 84 | 1011.1 |
| 20260508093559 | 69 | 326 | 7.0 | 10.0 | 0.00 | 0.00 | 0.00 | 84 | 1011.1 |
| 20260508093045 | 69 | 338 | 6.0 | 10.0 | 0.00 | 0.00 | 0.00 | 84 | 1011.1 |
| 20260508092539 | 69 | 341 | 4.0 | 7.0 | 0.00 | 0.00 | 0.00 | 84 | 1010.8 |
| 20260508092038 | 69 | 342 | 3.0 | 6.0 | 0.00 | 0.00 | 0.00 | 84 | 1010.8 |
| 20260508091039 | 69 | 28 | 0.0 | 3.0 | 0.00 | 0.00 | 0.00 | 85 | 1010.5 |
| 20260508090801 | 69 | 28 | 0.0 | 0.0 | 0.00 | 0.00 | 0.00 | 85 | 1010.5 |
| 20260508090034 | 69 | 28 | 0.0 | 0.0 | 0.00 | 0.00 | 0.00 | 84 | 1010.5 |
| 20260508085532 | 69 | 28 | 0.0 | 0.0 | 0.00 | 0.00 | 0.00 | 84 | 1010.8 |
| 20260508085033 | 69 | 28 | 0.0 | 2.0 | 0.00 | 0.00 | 0.00 | 84 | 1010.8 |
| 20260508084750 | 69 | 28 | 0.0 | 2.0 | 0.00 | 0.00 | 0.00 | 85 | 1010.8 |
| 20260508084034 | 69 | 28 | 0.0 | 2.0 | 0.00 | 0.00 | 0.00 | 84 | 1010.8 |
| 20260508083532 | 69 | 28 | 0.0 | 2.0 | 0.00 | 0.00 | 0.00 | 84 | 1010.8 |
| 20260508083033 | 69 | 16 | 0.0 | 3.0 | 0.00 | 0.00 | 0.00 | 84 | 1010.8 |
| 20260508082532 | 69 | 16 | 1.0 | 3.0 | 0.00 | 0.00 | 0.00 | 84 | 1010.7 |
| 20260508082032 | 69 | 16 | 2.0 | 3.0 | 0.00 | 0.00 | 0.00 | 85 | 1010.7 |
| 20260508081533 | 69 | 16 | 2.0 | 5.0 | 0.00 | 0.00 | 0.00 | 84 | 1010.7 |
| 20260508080531 | 69 | 7 | 3.0 | 6.0 | 0.00 | 0.00 | 0.00 | 84 | 1010.8 |
| 20260508080031 | 69 | 10 | 4.0 | 7.0 | 0.00 | 0.00 | 0.00 | 84 | 1010.8 |
| 20260508075529 | 69 | 12 | 5.0 | 8.0 | 0.00 | 0.00 | 0.00 | 84 | 1010.9 |
| 20260508075028 | 69 | 20 | 5.0 | 8.0 | 0.00 | 0.00 | 0.00 | 84 | 1010.9 |
| 20260508074528 | 69 | 22 | 5.0 | 9.0 | 0.00 | 0.00 | 0.00 | 84 | 1010.9 |
| 20260508074028 | 69 | 328 | 5.0 | 9.0 | 0.00 | 0.00 | 0.00 | 84 | 1011.3 |
| 20260508073527 | 69 | 357 | 5.0 | 8.0 | 0.00 | 0.00 | 0.00 | 84 | 1011.3 |
| 20260508073025 | 69 | 342 | 5.0 | 8.0 | 0.00 | 0.00 | 0.00 | 84 | 1011.3 |
| 20260508072527 | 69 | 354 | 4.0 | 8.0 | 0.00 | 0.00 | 0.00 | 84 | 1011.6 |
| 20260508072250 | 69 | 359 | 5.0 | 8.0 | 0.00 | 0.00 | 0.00 | 84 | 1011.6 |
| 20260508071523 | 69 | 5 | 5.0 | 8.0 | 0.00 | 0.00 | 0.00 | 84 | 1011.6 |
| 20260508071019 | 69 | 11 | 6.0 | 11.0 | 0.00 | 0.00 | 0.00 | 84 | 1011.8 |
| 20260508070519 | 69 | 351 | 7.0 | 11.0 | 0.00 | 0.00 | 0.00 | 84 | 1011.8 |
| 20260508070012 | 69 | 350 | 7.0 | 11.0 | 0.00 | 0.00 | 0.00 | 84 | 1011.8 |
| 20260508065509 | 69 | 357 | 7.0 | 11.0 | 0.00 | 0.00 | 0.00 | 84 | 1012.2 |
| 20260508065227 | 69 | 333 | 8.0 | 11.0 | 0.00 | 0.00 | 0.00 | 84 | 1012.2 |
| 20260508064509 | 69 | 338 | 8.0 | 11.0 | 0.00 | 0.00 | 0.00 | 84 | 1012.2 |
| 20260508064009 | 69 | 342 | 6.0 | 10.0 | 0.00 | 0.00 | 0.00 | 84 | 1012.2 |
| 20260508063510 | 69 | 332 | 6.0 | 10.0 | 0.00 | 0.00 | 0.00 | 84 | 1012.2 |
| 20260508063010 | 69 | 328 | 7.0 | 11.0 | 0.00 | 0.00 | 0.00 | 84 | 1012.2 |
| 20260508062509 | 69 | 329 | 7.0 | 11.0 | 0.00 | 0.00 | 0.00 | 84 | 1011.9 |
| 20260508062234 | 70 | 334 | 7.0 | 11.0 | 0.00 | 0.00 | 0.00 | 84 | 1011.9 |
| 20260508061510 | 70 | 335 | 7.0 | 11.0 | 0.00 | 0.00 | 0.00 | 84 | 1011.9 |
| 20260508061009 | 70 | 342 | 7.0 | 10.0 | 0.00 | 0.00 | 0.00 | 84 | 1011.7 |
| 20260508060510 | 70 | 341 | 7.0 | 12.0 | 0.00 | 0.00 | 0.00 | 84 | 1011.7 |
| 20260508060008 | 70 | 338 | 8.0 | 11.0 | 0.00 | 0.00 | 0.00 | 84 | 1011.7 |
| 20260508055504 | 70 | 357 | 9.0 | 12.0 | 0.00 | 0.00 | 0.00 | 84 | 1011.6 |
| 20260508054952 | 71 | 334 | 9.0 | 12.0 | 0.00 | 0.00 | 0.00 | 84 | 1011.6 |
| 20260508054443 | 71 | 332 | 9.0 | 12.0 | 0.00 | 0.00 | 0.00 | 85 | 1011.6 |
| 20260508053936 | 71 | 329 | 9.0 | 12.0 | 0.00 | 0.00 | 0.00 | 84 | 1011.6 |
| 20260508053430 | 71 | 344 | 8.0 | 12.0 | 0.00 | 0.00 | 0.00 | 85 | 1011.6 |
| 20260508052925 | 72 | 323 | 7.0 | 12.0 | 0.00 | 0.00 | 0.00 | 85 | 1011.4 |
| 20260508052416 | 72 | 344 | 7.0 | 10.0 | 0.00 | 0.00 | 0.00 | 85 | 1011.4 |
| 20260508051906 | 72 | 2 | 7.0 | 10.0 | 0.00 | 0.00 | 0.00 | 85 | 1011.4 |
| 20260508051401 | 72 | 351 | 6.0 | 9.0 | 0.00 | 0.00 | 0.00 | 85 | 1010.8 |
| 20260508050858 | 72 | 349 | 4.0 | 7.0 | 0.00 | 0.00 | 0.00 | 84 | 1010.8 |
| 20260508050630 | 72 | 90 | 3.0 | 6.0 | 0.00 | 0.00 | 0.00 | 84 | 1010.8 |
| 20260508045858 | 72 | 49 | 2.0 | 5.0 | 0.00 | 0.00 | 0.00 | 84 | 1011.1 |
| 20260508045621 | 72 | 74 | 2.0 | 5.0 | 0.00 | 0.00 | 0.00 | 84 | 1011.1 |
| 20260508044854 | 72 | 54 | 2.0 | 5.0 | 0.00 | 0.00 | 0.00 | 84 | 1011.1 |
| 20260508044352 | 72 | 109 | 2.0 | 4.0 | 0.00 | 0.00 | 0.00 | 84 | 1011.3 |
| 20260508043853 | 72 | 112 | 2.0 | 4.0 | 0.00 | 0.00 | 0.00 | 84 | 1011.3 |
| 20260508043350 | 72 | 128 | 2.0 | 4.0 | 0.00 | 0.00 | 0.00 | 84 | 1011.3 |
| 20260508042847 | 72 | 130 | 2.0 | 7.0 | 0.00 | 0.00 | 0.00 | 84 | 1010.9 |
| 20260508042346 | 72 | 120 | 2.0 | 7.0 | 0.00 | 0.00 | 0.00 | 84 | 1010.9 |
| 20260508041848 | 72 | 120 | 4.0 | 7.0 | 0.00 | 0.00 | 0.00 | 84 | 1010.9 |
| 20260508041341 | 72 | 117 | 5.0 | 7.0 | 0.00 | 0.00 | 0.00 | 84 | 1011.4 |
| 20260508040831 | 72 | 103 | 5.0 | 7.0 | 0.00 | 0.00 | 0.00 | 84 | 1011.4 |
| 20260508040325 | 72 | 99 | 4.0 | 15.0 | 0.00 | 0.00 | 0.00 | 84 | 1011.4 |
| 20260508035816 | 72 | 133 | 6.0 | 15.0 | 0.00 | 0.00 | 0.00 | 84 | 1010.4 |
| 20260508034756 | 73 | 111 | 10.0 | 15.0 | 0.00 | 0.00 | 0.00 | 84 | 1010.4 |
| 20260508034245 | 73 | 116 | 9.0 | 12.0 | 0.00 | 0.00 | 0.00 | 84 | 1011.4 |
| 20260508033736 | 73 | 128 | 8.0 | 12.0 | 0.00 | 0.00 | 0.00 | 84 | 1011.4 |
| 20260508033229 | 73 | 130 | 7.0 | 10.0 | 0.00 | 0.00 | 0.00 | 84 | 1011.4 |
| 20260508032720 | 73 | 113 | 6.0 | 8.0 | 0.00 | 0.00 | 0.00 | 83 | 1011.9 |
| 20260508032206 | 73 | 106 | 4.0 | 7.0 | 0.00 | 0.00 | 0.00 | 83 | 1011.9 |
| 20260508031655 | 73 | 90 | 3.0 | 5.0 | 0.00 | 0.00 | 0.00 | 83 | 1011.9 |
| 20260508031148 | 73 | 53 | 3.0 | 4.0 | 0.00 | 0.00 | 0.00 | 83 | 1012.4 |
| 20260508030853 | 73 | 43 | 3.0 | 8.0 | 0.00 | 0.00 | 0.00 | 83 | 1012.4 |
| 20260508030130 | 73 | 11 | 3.0 | 8.0 | 0.00 | 0.00 | 0.00 | 83 | 1012.4 |
| 20260508025617 | 73 | 35 | 4.0 | 8.0 | 0.00 | 0.00 | 0.00 | 83 | 1011.9 |
| 20260508025111 | 73 | 61 | 4.0 | 8.0 | 0.00 | 0.00 | 0.00 | 83 | 1011.9 |
| 20260508024047 | 73 | 36 | 3.0 | 6.0 | 0.00 | 0.00 | 0.00 | 84 | 1012.5 |
| 20260508023546 | 73 | 6 | 3.0 | 5.0 | 0.00 | 0.00 | 0.00 | 84 | 1012.5 |
| 20260508023301 | 73 | 10 | 3.0 | 6.0 | 0.00 | 0.00 | 0.00 | 84 | 1012.5 |
| 20260508022537 | 73 | 14 | 3.0 | 6.0 | 0.00 | 0.00 | 0.00 | 84 | 1011.9 |
| 20260508022034 | 73 | 1 | 3.0 | 6.0 | 0.00 | 0.00 | 0.00 | 84 | 1011.9 |
| 20260508021536 | 73 | 19 | 3.0 | 5.0 | 0.00 | 0.00 | 0.00 | 84 | 1011.9 |
| 20260508021034 | 73 | 39 | 3.0 | 5.0 | 0.00 | 0.00 | 0.00 | 84 | 1011.8 |
| 20260508020800 | 73 | 37 | 3.0 | 4.0 | 0.00 | 0.00 | 0.00 | 84 | 1011.8 |
| 20260508020306 | 73 | 39 | 3.0 | 5.0 | 0.00 | 0.00 | 0.00 | 83 | 1011.8 |
| 20260508015535 | 73 | 49 | 3.0 | 5.0 | 0.00 | 0.00 | 0.00 | 83 | 1011.4 |
| 20260508015035 | 73 | 56 | 3.0 | 5.0 | 0.00 | 0.00 | 0.00 | 83 | 1011.4 |
| 20260508014534 | 73 | 59 | 4.0 | 6.0 | 0.00 | 0.00 | 0.00 | 83 | 1011.4 |
| 20260508014017 | 73 | 57 | 4.0 | 7.0 | 0.00 | 0.00 | 0.00 | 83 | 1011.5 |
| 20260508013506 | 73 | 46 | 4.0 | 7.0 | 0.00 | 0.00 | 0.00 | 83 | 1011.5 |
| 20260508013006 | 73 | 29 | 4.0 | 9.0 | 0.00 | 0.00 | 0.00 | 83 | 1011.5 |
| 20260508012506 | 73 | 39 | 6.0 | 9.0 | 0.00 | 0.00 | 0.00 | 83 | 1011.4 |
| 20260508012006 | 73 | 25 | 6.0 | 9.0 | 0.00 | 0.00 | 0.00 | 83 | 1011.4 |
| 20260508011504 | 73 | 24 | 6.0 | 9.0 | 0.00 | 0.00 | 0.00 | 83 | 1011.4 |
| 20260508011002 | 73 | 15 | 5.0 | 9.0 | 0.00 | 0.00 | 0.00 | 83 | 1011.4 |
| 20260508010501 | 74 | 42 | 5.0 | 12.0 | 0.00 | 0.00 | 0.00 | 83 | 1011.4 |
| 20260508005959 | 74 | 13 | 6.0 | 12.0 | 0.00 | 0.00 | 0.00 | 83 | 1011.4 |
| 20260508005458 | 74 | 27 | 7.0 | 12.0 | 0.00 | 0.00 | 0.00 | 83 | 1011.2 |
| 20260508005003 | 74 | 9 | 7.0 | 12.0 | 0.00 | 0.00 | 0.00 | 83 | 1011.2 |
| 20260508004449 | 74 | 15 | 7.0 | 11.0 | 0.00 | 0.00 | 0.00 | 83 | 1011.3 |
| 20260508003949 | 74 | 14 | 6.0 | 11.0 | 0.00 | 0.00 | 0.00 | 83 | 1011.3 |
| 20260508003712 | 74 | 14 | 5.0 | 9.0 | 0.00 | 0.00 | 0.00 | 83 | 1011.3 |
| 20260508002954 | 74 | 16 | 5.0 | 9.0 | 0.00 | 0.00 | 0.00 | 83 | 1011.7 |
| 20260508002448 | 74 | 16 | 4.0 | 6.0 | 0.00 | 0.00 | 0.00 | 83 | 1011.7 |
| 20260508001947 | 74 | 348 | 4.0 | 6.0 | 0.00 | 0.00 | 0.00 | 83 | 1011.7 |
| 20260508001711 | 74 | 352 | 3.0 | 5.0 | 0.00 | 0.00 | 0.00 | 83 | 1011.7 |
| 20260508000948 | 74 | 6 | 3.0 | 4.0 | 0.00 | 0.00 | 0.00 | 83 | 1011.4 |
| 20260508000450 | 74 | 356 | 3.0 | 4.0 | 0.00 | 0.00 | 0.00 | 83 | 1011.4 |
| 20260508000212 | 74 | 11 | 3.0 | 5.0 | 0.00 | 0.00 | 0.00 | 83 | 1011.4 |
| 20260507235442 | 74 | 30 | 3.0 | 5.0 | 0.00 | 0.00 | 0.00 | 82 | 1011.4 |
| 20260507234937 | 74 | 38 | 3.0 | 5.0 | 0.00 | 0.00 | 0.00 | 82 | 1011.4 |
| 20260507234437 | 74 | 45 | 3.0 | 6.0 | 0.00 | 0.00 | 0.00 | 82 | 1011.3 |
| 20260507233937 | 74 | 48 | 3.0 | 6.0 | 0.00 | 0.00 | 0.00 | 82 | 1011.3 |
| 20260507233436 | 74 | 49 | 3.0 | 6.0 | 0.00 | 0.00 | 0.00 | 82 | 1011.3 |
| 20260507233202 | 74 | 59 | 2.0 | 6.0 | 0.00 | 0.00 | 0.00 | 82 | 1011.5 |
| 20260507232702 | 74 | 52 | 2.0 | 5.0 | 0.00 | 0.00 | 0.00 | 82 | 1011.5 |
| 20260507231933 | 74 | 59 | 2.0 | 6.0 | 0.00 | 0.00 | 0.00 | 82 | 1011.5 |
| 20260507231433 | 74 | 44 | 3.0 | 6.0 | 0.00 | 0.00 | 0.00 | 82 | 1011.5 |
| 20260507230938 | 74 | 45 | 4.0 | 9.0 | 0.00 | 0.00 | 0.00 | 82 | 1011.5 |
| 20260507230434 | 74 | 30 | 5.0 | 9.0 | 0.00 | 0.00 | 0.00 | 82 | 1011.5 |
| 20260507225934 | 74 | 23 | 6.0 | 9.0 | 0.00 | 0.00 | 0.00 | 82 | 1011.6 |
| 20260507225433 | 74 | 34 | 5.0 | 9.0 | 0.00 | 0.00 | 0.00 | 82 | 1011.6 |
| 20260507225153 | 74 | 24 | 4.0 | 8.0 | 0.00 | 0.00 | 0.00 | 82 | 1011.6 |
| 20260507224653 | 74 | 47 | 4.0 | 8.0 | 0.00 | 0.00 | 0.00 | 82 | 1011.3 |
| 20260507224146 | 74 | 47 | 4.0 | 9.0 | 0.00 | 0.00 | 0.00 | 82 | 1011.3 |
| 20260507223408 | 74 | 49 | 5.0 | 9.0 | 0.00 | 0.00 | 0.00 | 82 | 1011.3 |
| 20260507222901 | 74 | 39 | 6.0 | 11.0 | 0.00 | 0.00 | 0.00 | 82 | 1011.3 |
| 20260507222352 | 74 | 62 | 6.0 | 10.0 | 0.00 | 0.00 | 0.00 | 82 | 1011.3 |
| 20260507221844 | 73 | 49 | 6.0 | 9.0 | 0.00 | 0.00 | 0.00 | 82 | 1011.3 |
| 20260507221340 | 73 | 40 | 6.0 | 11.0 | 0.00 | 0.00 | 0.00 | 82 | 1011.4 |
| 20260507220840 | 73 | 33 | 6.0 | 11.0 | 0.00 | 0.00 | 0.00 | 82 | 1011.4 |
| 20260507220603 | 73 | 28 | 5.0 | 11.0 | 0.00 | 0.00 | 0.00 | 82 | 1011.4 |
| 20260507215841 | 73 | 24 | 6.0 | 11.0 | 0.00 | 0.00 | 0.00 | 82 | 1011.3 |
| 20260507215339 | 73 | 16 | 8.0 | 13.0 | 0.00 | 0.00 | 0.00 | 82 | 1011.3 |
| 20260507214838 | 73 | 26 | 9.0 | 13.0 | 0.00 | 0.00 | 0.00 | 82 | 1011.3 |
| 20260507214339 | 73 | 21 | 8.0 | 13.0 | 0.00 | 0.00 | 0.00 | 82 | 1011.4 |
| 20260507213840 | 73 | 4 | 7.0 | 14.0 | 0.00 | 0.00 | 0.00 | 82 | 1011.4 |
| 20260507213327 | 73 | 28 | 7.0 | 14.0 | 0.00 | 0.00 | 0.00 | 83 | 1011.4 |
| 20260507212827 | 73 | 22 | 8.0 | 14.0 | 0.00 | 0.00 | 0.00 | 83 | 1011.7 |
| 20260507212332 | 73 | 38 | 9.0 | 14.0 | 0.00 | 0.00 | 0.00 | 83 | 1011.7 |
| 20260507211833 | 73 | 335 | 8.0 | 13.0 | 0.00 | 0.00 | 0.00 | 83 | 1011.7 |
| 20260507211327 | 73 | 55 | 7.0 | 13.0 | 0.00 | 0.00 | 0.00 | 83 | 1011.9 |
| 20260507211100 | 72 | 40 | 6.0 | 9.0 | 0.00 | 0.00 | 0.00 | 83 | 1011.9 |
| 20260507210327 | 72 | 40 | 7.0 | 11.0 | 0.00 | 0.00 | 0.00 | 83 | 1011.9 |
| 20260507210055 | 72 | 18 | 7.0 | 12.0 | 0.00 | 0.00 | 0.00 | 83 | 1012.0 |
| 20260507205320 | 71 | 24 | 7.0 | 12.0 | 0.00 | 0.00 | 0.00 | 83 | 1012.0 |
| 20260507204812 | 71 | 39 | 7.0 | 13.0 | 0.00 | 0.00 | 0.00 | 83 | 1012.0 |
| 20260507204306 | 71 | 26 | 7.0 | 13.0 | 0.00 | 0.00 | 0.00 | 83 | 1012.2 |
| 20260507204024 | 71 | 58 | 7.0 | 13.0 | 0.00 | 0.00 | 0.00 | 83 | 1012.2 |
| 20260507203246 | 71 | 32 | 8.0 | 13.0 | 0.00 | 0.00 | 0.00 | 83 | 1012.2 |
| 20260507202743 | 71 | 47 | 8.0 | 14.0 | 0.00 | 0.00 | 0.00 | 83 | 1012.4 |
| 20260507202243 | 70 | 23 | 8.0 | 14.0 | 0.00 | 0.00 | 0.00 | 83 | 1012.4 |
| 20260507202015 | 70 | 36 | 8.0 | 13.0 | 0.00 | 0.00 | 0.00 | 83 | 1012.4 |
| 20260507201246 | 70 | 43 | 7.0 | 12.0 | 0.00 | 0.00 | 0.00 | 83 | 1012.7 |
| 20260507200741 | 70 | 0 | 7.0 | 14.0 | 0.00 | 0.00 | 0.00 | 83 | 1012.7 |
| 20260507200241 | 69 | 32 | 9.0 | 14.0 | 0.00 | 0.00 | 0.00 | 83 | 1012.7 |
| 20260507195740 | 69 | 39 | 9.0 | 14.0 | 0.00 | 0.00 | 0.00 | 83 | 1012.8 |
| 20260507195240 | 69 | 15 | 8.0 | 14.0 | 0.00 | 0.00 | 0.00 | 83 | 1012.8 |
| 20260507194740 | 69 | 30 | 8.0 | 14.0 | 0.00 | 0.00 | 0.00 | 83 | 1012.8 |
| 20260507194240 | 69 | 57 | 8.0 | 13.0 | 0.00 | 0.00 | 0.00 | 83 | 1012.9 |
| 20260507193740 | 69 | 19 | 9.0 | 17.0 | 0.00 | 0.00 | 0.00 | 83 | 1012.9 |
| 20260507193238 | 69 | 26 | 11.0 | 17.0 | 0.00 | 0.00 | 0.00 | 83 | 1012.9 |
| 20260507192736 | 69 | 31 | 11.0 | 17.0 | 0.00 | 0.00 | 0.00 | 83 | 1013.4 |
| 20260507192229 | 69 | 30 | 10.0 | 16.0 | 0.00 | 0.00 | 0.00 | 83 | 1013.4 |
| 20260507191719 | 69 | 9 | 10.0 | 16.0 | 0.00 | 0.00 | 0.00 | 83 | 1013.4 |
| 20260507191210 | 68 | 5 | 10.0 | 15.0 | 0.00 | 0.00 | 0.00 | 83 | 1013.5 |
| 20260507190700 | 68 | 22 | 11.0 | 16.0 | 0.00 | 0.00 | 0.00 | 83 | 1013.5 |
| 20260507190150 | 68 | 17 | 11.0 | 16.0 | 0.00 | 0.00 | 0.00 | 83 | 1013.5 |
| 20260507185644 | 68 | 357 | 9.0 | 16.0 | 0.00 | 0.00 | 0.00 | 83 | 1013.7 |
| 20260507185133 | 68 | 10 | 8.0 | 15.0 | 0.00 | 0.00 | 0.00 | 84 | 1013.7 |
| 20260507184628 | 68 | 33 | 10.0 | 17.0 | 0.00 | 0.00 | 0.00 | 84 | 1013.7 |
| 20260507184121 | 68 | 32 | 11.0 | 17.0 | 0.00 | 0.00 | 0.00 | 84 | 1013.6 |
| 20260507183611 | 68 | 353 | 11.0 | 18.0 | 0.00 | 0.00 | 0.00 | 84 | 1013.6 |
| 20260507183102 | 68 | 339 | 12.0 | 18.0 | 0.00 | 0.00 | 0.00 | 84 | 1013.6 |
| 20260507182555 | 68 | 357 | 10.0 | 17.0 | 0.00 | 0.00 | 0.00 | 84 | 1014.0 |
| 20260507182307 | 68 | 341 | 9.0 | 15.0 | 0.00 | 0.00 | 0.00 | 84 | 1014.0 |
| 20260507181802 | 68 | 352 | 9.0 | 15.0 | 0.00 | 0.00 | 0.00 | 84 | 1014.0 |
| 20260507181030 | 68 | 339 | 9.0 | 15.0 | 0.00 | 0.00 | 0.00 | 84 | 1014.0 |
| 20260507180523 | 68 | 354 | 10.0 | 16.0 | 0.00 | 0.00 | 0.00 | 84 | 1014.0 |
| 20260507180014 | 68 | 359 | 11.0 | 16.0 | 0.00 | 0.00 | 0.00 | 84 | 1014.0 |
| 20260507175519 | 68 | 90 | 12.0 | 19.0 | 0.00 | 0.00 | 0.00 | 84 | 1014.0 |
| 20260507175235 | 68 | 10 | 12.0 | 19.0 | 0.00 | 0.00 | 0.00 | 84 | 1014.0 |
| 20260507174011 | 68 | 357 | 13.0 | 20.0 | 0.00 | 0.00 | 0.00 | 85 | 1014.0 |
| 20260507173516 | 68 | 90 | 12.0 | 20.0 | 0.00 | 0.00 | 0.00 | 85 | 1014.0 |
| 20260507173012 | 68 | 351 | 12.0 | 19.0 | 0.00 | 0.00 | 0.00 | 85 | 1014.0 |
| 20260507172521 | 67 | 340 | 13.0 | 21.0 | 0.00 | 0.00 | 0.00 | 85 | 1014.1 |
| 20260507172012 | 67 | 359 | 13.0 | 21.0 | 0.00 | 0.00 | 0.00 | 85 | 1014.1 |
| 20260507171512 | 66 | 1 | 12.0 | 13.0 | 0.00 | 0.00 | 0.00 | 85 | 1014.1 |
| 20260507165911 | 66 | 357 | 11.0 | 18.0 | 0.00 | 0.00 | 0.00 | 85 | 1014.5 |
| 20260507165359 | 66 | 0 | 11.0 | 18.0 | 0.00 | 0.00 | 0.00 | 86 | 1014.5 |
| 20260507165101 | 66 | 1 | 10.0 | 18.0 | 0.00 | 0.00 | 0.00 | 86 | 1014.5 |
| 20260507164331 | 66 | 22 | 10.0 | 16.0 | 0.00 | 0.00 | 0.00 | 85 | 1014.5 |
| 20260507163817 | 66 | 3 | 11.0 | 18.0 | 0.00 | 0.00 | 0.00 | 85 | 1014.5 |
| 20260507163319 | 66 | 20 | 11.0 | 18.0 | 0.00 | 0.00 | 0.00 | 85 | 1014.5 |
| 20260507162818 | 66 | 10 | 10.0 | 16.0 | 0.00 | 0.00 | 0.00 | 86 | 1014.5 |
| 20260507162318 | 66 | 11 | 10.0 | 16.0 | 0.00 | 0.00 | 0.00 | 86 | 1014.5 |
| 20260507162049 | 66 | 16 | 11.0 | 17.0 | 0.00 | 0.00 | 0.00 | 86 | 1014.5 |
| 20260507161318 | 66 | 11 | 12.0 | 17.0 | 0.00 | 0.00 | 0.00 | 86 | 1014.3 |
| 20260507160816 | 65 | 1 | 12.0 | 17.0 | 0.00 | 0.00 | 0.00 | 86 | 1014.3 |
| 20260507160316 | 65 | 11 | 12.0 | 21.0 | 0.00 | 0.00 | 0.00 | 86 | 1014.3 |
| 20260507155816 | 65 | 28 | 13.0 | 21.0 | 0.00 | 0.00 | 0.00 | 86 | 1014.0 |
| 20260507154816 | 65 | 5 | 11.0 | 18.0 | 0.00 | 0.00 | 0.00 | 86 | 1014.0 |
| 20260507154303 | 65 | 36 | 10.0 | 18.0 | 0.00 | 0.00 | 0.00 | 86 | 1014.0 |
| 20260507153747 | 65 | 4 | 11.0 | 18.0 | 0.00 | 0.00 | 0.00 | 86 | 1014.0 |